,,,PA_Meas_PMT16A,,PR_Meas_QMR101_102,,RH_Meas_QMH101,,SR_Meas_QMS101,,TA_Meas_QMH101,,GenWind,,GenWind,
date,time,status,PA,status,PR,status,RH,status,SR,status,TA,status,DirAvg,status,SpdAvg,
2014-07-19, 00:00:04,VALID,1009.79,VALID,0,VALID,95.3295,VALID,0.224224,VALID,24.2573,VALID,180,VALID,0,
2014-07-19, 00:01:04,VALID,1009.75,VALID,0,VALID,96.0082,VALID,0.112112,VALID,24.2183,VALID,180,VALID,0,
2014-07-19, 00:02:04,VALID,1009.73,VALID,0,VALID,96.3514,VALID,0.224224,VALID,24.1793,VALID,180,VALID,0,
2014-07-19, 00:03:04,VALID,1009.74,VALID,0,VALID,96.7556,VALID,0.224224,VALID,24.1404,VALID,180,VALID,0,
2014-07-19, 00:04:04,VALID,1009.74,VALID,0,VALID,97.0835,VALID,0.224224,VALID,24.1209,VALID,180,VALID,0,
2014-07-19, 00:05:04,VALID,1009.75,VALID,0,VALID,97.2284,VALID,0.112112,VALID,24.0624,VALID,180,VALID,0,
2014-07-19, 00:06:04,VALID,1009.71,VALID,0,VALID,97.5258,VALID,0.224224,VALID,24.0624,VALID,180,VALID,0,
2014-07-19, 00:07:04,VALID,1009.71,VALID,0,VALID,97.8689,VALID,0.224224,VALID,24.0429,VALID,180,VALID,0,
2014-07-19, 00:08:04,VALID,1009.69,VALID,0,VALID,98.2045,VALID,0.224224,VALID,24.0235,VALID,180,VALID,0,
2014-07-19, 00:09:04,VALID,1009.64,VALID,0,VALID,98.5705,VALID,0.224224,VALID,24.004,VALID,180,VALID,0,
2014-07-19, 00:10:04,VALID,1009.65,VALID,0,VALID,98.8374,VALID,0,VALID,23.9863,VALID,180,VALID,0,
2014-07-19, 00:11:04,VALID,1009.62,VALID,0,VALID,98.9594,VALID,0.112112,VALID,23.9473,VALID,180,VALID,0,
2014-07-19, 00:12:04,VALID,1009.62,VALID,0,VALID,99.0128,VALID,0,VALID,23.9084,VALID,180,VALID,0,
2014-07-19, 00:13:04,VALID,1009.62,VALID,0,VALID,99.1195,VALID,0,VALID,23.8694,VALID,180,VALID,0,
2014-07-19, 00:14:04,VALID,1009.6,VALID,0,VALID,99.2797,VALID,0,VALID,23.8499,VALID,180,VALID,0,
2014-07-19, 00:15:04,VALID,1009.59,VALID,0,VALID,99.5542,VALID,0.112112,VALID,23.8499,VALID,180,VALID,0,
2014-07-19, 00:16:04,VALID,1009.58,VALID,0,VALID,99.7677,VALID,0.112112,VALID,23.8304,VALID,180,VALID,0,
2014-07-19, 00:17:04,VALID,1009.56,VALID,0,VALID,99.9889,VALID,0,VALID,23.8109,VALID,180,VALID,0,
2014-07-19, 00:18:04,VALID,1009.55,VALID,0,VALID,100.149,VALID,0,VALID,23.7914,VALID,180,VALID,0,
2014-07-19, 00:19:04,VALID,1009.53,VALID,0,VALID,100.37,VALID,0.112112,VALID,23.772,VALID,180,VALID,0,
2014-07-19, 00:20:04,VALID,1009.53,VALID,0,VALID,100.568,VALID,0,VALID,23.7932,VALID,180,VALID,0,
2014-07-19, 00:21:04,VALID,1009.52,VALID,0,VALID,100.767,VALID,0.112112,VALID,23.7525,VALID,180,VALID,0,
2014-07-19, 00:22:04,VALID,1009.53,VALID,0,VALID,100.957,VALID,0,VALID,23.733,VALID,180,VALID,0,
2014-07-19, 00:23:04,VALID,1009.54,VALID,0,VALID,101.095,VALID,0,VALID,23.733,VALID,180,VALID,0,
2014-07-19, 00:24:04,VALID,1009.54,VALID,0,VALID,101.224,VALID,0.112112,VALID,23.733,VALID,180,VALID,0,
2014-07-19, 00:25:04,VALID,1009.53,VALID,0,VALID,101.415,VALID,0,VALID,23.7135,VALID,180,VALID,0,
2014-07-19, 00:26:04,VALID,1009.55,VALID,0,VALID,101.552,VALID,0,VALID,23.694,VALID,180,VALID,0,
2014-07-19, 00:27:04,VALID,1009.51,VALID,0,VALID,101.743,VALID,0,VALID,23.7153,VALID,180,VALID,0,
2014-07-19, 00:28:04,VALID,1009.5,VALID,0,VALID,101.834,VALID,0,VALID,23.6958,VALID,180,VALID,0,
2014-07-19, 00:29:04,VALID,1009.51,VALID,0,VALID,101.88,VALID,0,VALID,23.655,VALID,180,VALID,0,
2014-07-19, 00:30:04,VALID,1009.51,VALID,0,VALID,101.941,VALID,0,VALID,23.6356,VALID,180,VALID,0,
2014-07-19, 00:31:04,VALID,1009.52,VALID,0,VALID,102.132,VALID,0,VALID,23.6161,VALID,180,VALID,0,
2014-07-19, 00:32:04,VALID,1009.52,VALID,0,VALID,102.269,VALID,0,VALID,23.6161,VALID,180,VALID,0,
2014-07-19, 00:33:04,VALID,1009.52,VALID,0,VALID,102.421,VALID,0,VALID,23.5966,VALID,180,VALID,0,
2014-07-19, 00:34:04,VALID,1009.51,VALID,0,VALID,102.505,VALID,0,VALID,23.5771,VALID,180,VALID,0,
2014-07-19, 00:35:04,VALID,1009.5,VALID,0,VALID,102.62,VALID,0,VALID,23.5771,VALID,180,VALID,0,
2014-07-19, 00:36:04,VALID,1009.47,VALID,0,VALID,102.658,VALID,0,VALID,23.5576,VALID,180,VALID,0,
2014-07-19, 00:37:04,VALID,1009.46,VALID,0,VALID,102.734,VALID,0,VALID,23.5381,VALID,180,VALID,0,
2014-07-19, 00:38:04,VALID,1009.42,VALID,0,VALID,102.81,VALID,0,VALID,23.4992,VALID,180,VALID,0,
2014-07-19, 00:39:04,VALID,1009.4,VALID,0,VALID,102.894,VALID,0,VALID,23.4797,VALID,180,VALID,0,
2014-07-19, 00:40:04,VALID,1009.39,VALID,0,VALID,103.085,VALID,0,VALID,23.4797,VALID,180,VALID,0,
2014-07-19, 00:41:04,VALID,1009.37,VALID,0,VALID,103.291,VALID,0,VALID,23.4602,VALID,180,VALID,0,
2014-07-19, 00:42:04,VALID,1009.35,VALID,0,VALID,103.451,VALID,0,VALID,23.4797,VALID,180,VALID,0,
2014-07-19, 00:43:04,VALID,1009.35,VALID,0,VALID,103.596,VALID,0,VALID,23.4602,VALID,180,VALID,0,
2014-07-19, 00:44:04,VALID,1009.35,VALID,0,VALID,103.687,VALID,0,VALID,23.4602,VALID,180,VALID,0,
2014-07-19, 00:45:04,VALID,1009.33,VALID,0,VALID,103.748,VALID,0,VALID,23.4212,VALID,180,VALID,0,
2014-07-19, 00:46:04,VALID,1009.31,VALID,0,VALID,103.809,VALID,0,VALID,23.4212,VALID,180,VALID,0,
2014-07-19, 00:47:04,VALID,1009.28,VALID,0,VALID,103.901,VALID,0,VALID,23.4017,VALID,180,VALID,0,
2014-07-19, 00:48:04,VALID,1009.28,VALID,0,VALID,104,VALID,0,VALID,23.3823,VALID,180,VALID,0,
2014-07-19, 00:49:04,VALID,1009.25,VALID,0,VALID,104,VALID,0,VALID,23.384,VALID,180,VALID,0,
2014-07-19, 00:50:04,VALID,1009.19,VALID,0,VALID,104,VALID,0,VALID,23.3628,VALID,180,VALID,0,
2014-07-19, 00:51:04,VALID,1009.19,VALID,0,VALID,104,VALID,0,VALID,23.3628,VALID,180,VALID,0,
2014-07-19, 00:52:04,VALID,1009.18,VALID,0,VALID,104,VALID,0,VALID,23.3628,VALID,180,VALID,0,
2014-07-19, 00:53:04,VALID,1009.19,VALID,0,VALID,104,VALID,0,VALID,23.3628,VALID,180,VALID,0,
2014-07-19, 00:54:04,VALID,1009.18,VALID,0,VALID,104,VALID,0,VALID,23.3433,VALID,180,VALID,0,
2014-07-19, 00:55:04,VALID,1009.19,VALID,0,VALID,104,VALID,0,VALID,23.3238,VALID,180,VALID,0,
2014-07-19, 00:56:04,VALID,1009.19,VALID,0,VALID,104,VALID,0,VALID,23.3238,VALID,180,VALID,0,
2014-07-19, 00:57:04,VALID,1009.21,VALID,0,VALID,104,VALID,0,VALID,23.3451,VALID,180,VALID,0,
2014-07-19, 00:58:04,VALID,1009.2,VALID,0,VALID,104,VALID,0,VALID,23.3043,VALID,180,VALID,0,
2014-07-19, 00:59:04,VALID,1009.17,VALID,0,VALID,104,VALID,0,VALID,23.2848,VALID,180,VALID,0,
2014-07-19, 01:00:04,VALID,1009.18,VALID,0,VALID,104,VALID,0,VALID,23.2654,VALID,180,VALID,0,
2014-07-19, 01:01:04,VALID,1009.18,VALID,0,VALID,104,VALID,0,VALID,23.2459,VALID,180,VALID,0,
2014-07-19, 01:02:04,VALID,1009.16,VALID,0,VALID,104,VALID,0,VALID,23.2264,VALID,180,VALID,0,
2014-07-19, 01:03:04,VALID,1009.15,VALID,0,VALID,104,VALID,0,VALID,23.1874,VALID,180,VALID,0,
2014-07-19, 01:04:04,VALID,1009.17,VALID,0,VALID,104,VALID,0,VALID,23.1679,VALID,180,VALID,0,
2014-07-19, 01:05:04,VALID,1009.14,VALID,0,VALID,104,VALID,0,VALID,23.1679,VALID,180,VALID,0,
2014-07-19, 01:06:04,VALID,1009.14,VALID,0,VALID,104,VALID,0,VALID,23.1874,VALID,180,VALID,0,
2014-07-19, 01:07:04,VALID,1009.12,VALID,0,VALID,104,VALID,0,VALID,23.1679,VALID,180,VALID,0,
2014-07-19, 01:08:04,VALID,1009.11,VALID,0,VALID,104,VALID,0,VALID,23.1485,VALID,180,VALID,0,
2014-07-19, 01:09:04,VALID,1009.1,VALID,0,VALID,104,VALID,0,VALID,23.129,VALID,180,VALID,0,
2014-07-19, 01:10:04,VALID,1009.09,VALID,0,VALID,104,VALID,0,VALID,23.129,VALID,180,VALID,0,
2014-07-19, 01:11:04,VALID,1009.08,VALID,0,VALID,104,VALID,0,VALID,23.09,VALID,180,VALID,0,
2014-07-19, 01:12:04,VALID,1009.11,VALID,0,VALID,104,VALID,0,VALID,23.09,VALID,180,VALID,0,
2014-07-19, 01:13:04,VALID,1009.11,VALID,0,VALID,104,VALID,0,VALID,23.09,VALID,180,VALID,0,
2014-07-19, 01:14:04,VALID,1009.14,VALID,0,VALID,104,VALID,0,VALID,23.1095,VALID,180,VALID,0,
2014-07-19, 01:15:04,VALID,1009.12,VALID,0,VALID,104,VALID,0,VALID,23.129,VALID,180,VALID,0,
2014-07-19, 01:16:04,VALID,1009.09,VALID,0,VALID,104,VALID,0,VALID,23.1272,VALID,180,VALID,0,
2014-07-19, 01:17:04,VALID,1009.06,VALID,0,VALID,104,VALID,0,VALID,23.129,VALID,180,VALID,0,
2014-07-19, 01:18:04,VALID,1009.04,VALID,0,VALID,104,VALID,0,VALID,23.1077,VALID,180,VALID,0,
2014-07-19, 01:19:04,VALID,1009,VALID,0,VALID,104,VALID,0,VALID,23.129,VALID,180,VALID,0,
2014-07-19, 01:20:04,VALID,1008.97,VALID,0,VALID,104,VALID,0,VALID,23.1095,VALID,180,VALID,0,
2014-07-19, 01:21:04,VALID,1008.95,VALID,0,VALID,104,VALID,0,VALID,23.09,VALID,180,VALID,0,
2014-07-19, 01:22:04,VALID,1008.95,VALID,0,VALID,104,VALID,0,VALID,23.0688,VALID,180,VALID,0,
2014-07-19, 01:23:04,VALID,1008.93,VALID,0,VALID,104,VALID,0,VALID,23.09,VALID,180,VALID,0,
2014-07-19, 01:24:04,VALID,1008.93,VALID,0,VALID,104,VALID,0.112112,VALID,23.0493,VALID,180,VALID,0,
2014-07-19, 01:25:04,VALID,1008.94,VALID,0,VALID,104,VALID,0,VALID,23.09,VALID,180,VALID,0,
2014-07-19, 01:26:04,VALID,1008.94,VALID,0,VALID,104,VALID,0,VALID,23.09,VALID,180,VALID,0,
2014-07-19, 01:27:04,VALID,1008.96,VALID,0,VALID,104,VALID,0,VALID,23.1095,VALID,180,VALID,0,
2014-07-19, 01:28:04,VALID,1008.93,VALID,0,VALID,104,VALID,0,VALID,23.129,VALID,180,VALID,0,
2014-07-19, 01:29:04,VALID,1008.93,VALID,0,VALID,104,VALID,0,VALID,23.129,VALID,180,VALID,0,
2014-07-19, 01:30:04,VALID,1008.94,VALID,0,VALID,104,VALID,0,VALID,23.129,VALID,180,VALID,0,
2014-07-19, 01:31:04,VALID,1008.93,VALID,0,VALID,104,VALID,0,VALID,23.1095,VALID,180,VALID,0,
2014-07-19, 01:32:04,VALID,1008.95,VALID,0,VALID,104,VALID,0,VALID,23.1077,VALID,180,VALID,0,
2014-07-19, 01:33:04,VALID,1008.95,VALID,0,VALID,104,VALID,0,VALID,23.1095,VALID,180,VALID,0,
2014-07-19, 01:34:04,VALID,1009,VALID,0,VALID,104,VALID,0,VALID,23.1095,VALID,180,VALID,0,
2014-07-19, 01:35:04,VALID,1009.02,VALID,0,VALID,104,VALID,0,VALID,23.1095,VALID,180,VALID,0,
2014-07-19, 01:36:04,VALID,1009.05,VALID,0,VALID,104,VALID,0,VALID,23.1095,VALID,180,VALID,0,
2014-07-19, 01:37:04,VALID,1009.05,VALID,0,VALID,104,VALID,0,VALID,23.1095,VALID,180,VALID,0,
2014-07-19, 01:38:04,VALID,1009.09,VALID,0,VALID,104,VALID,0,VALID,23.09,VALID,180,VALID,0,
2014-07-19, 01:39:04,VALID,1009.11,VALID,0,VALID,104,VALID,0,VALID,23.0705,VALID,180,VALID,0,
2014-07-19, 01:40:04,VALID,1009.14,VALID,0,VALID,104,VALID,0,VALID,23.0705,VALID,180,VALID,0,
2014-07-19, 01:41:04,VALID,1009.15,VALID,0,VALID,104,VALID,0,VALID,23.0511,VALID,180,VALID,0,
2014-07-19, 01:42:04,VALID,1009.15,VALID,0,VALID,104,VALID,0,VALID,23.0705,VALID,180,VALID,0,
2014-07-19, 01:43:04,VALID,1009.14,VALID,0,VALID,104,VALID,0,VALID,23.0705,VALID,180,VALID,0,
2014-07-19, 01:44:04,VALID,1009.12,VALID,0,VALID,104,VALID,0,VALID,23.0511,VALID,180,VALID,0,
2014-07-19, 01:45:04,VALID,1009.12,VALID,0,VALID,104,VALID,0,VALID,23.0316,VALID,180,VALID,0,
2014-07-19, 01:46:04,VALID,1009.12,VALID,0,VALID,104,VALID,0,VALID,22.9926,VALID,180,VALID,0,
2014-07-19, 01:47:04,VALID,1009.09,VALID,0,VALID,104,VALID,0,VALID,22.9731,VALID,180,VALID,0,
2014-07-19, 01:48:04,VALID,1009.07,VALID,0,VALID,104,VALID,0,VALID,22.9342,VALID,180,VALID,0,
2014-07-19, 01:49:04,VALID,1009.03,VALID,0,VALID,104,VALID,0,VALID,22.9147,VALID,180,VALID,0,
2014-07-19, 01:50:04,VALID,1009.01,VALID,0,VALID,104,VALID,0,VALID,22.8757,VALID,180,VALID,0,
2014-07-19, 01:51:04,VALID,1009.03,VALID,0,VALID,104,VALID,0,VALID,22.8562,VALID,180,VALID,0,
2014-07-19, 01:52:04,VALID,1009.01,VALID,0,VALID,104,VALID,0,VALID,22.8368,VALID,180,VALID,0,
2014-07-19, 01:53:04,VALID,1009.01,VALID,0,VALID,104,VALID,0,VALID,22.858,VALID,180,VALID,0,
2014-07-19, 01:54:04,VALID,1009.02,VALID,0,VALID,104,VALID,0,VALID,22.8173,VALID,180,VALID,0,
2014-07-19, 01:55:04,VALID,1009.02,VALID,0,VALID,104,VALID,0,VALID,22.7978,VALID,180,VALID,0,
2014-07-19, 01:56:04,VALID,1009.02,VALID,0,VALID,104,VALID,0,VALID,22.8173,VALID,180,VALID,0,
2014-07-19, 01:57:04,VALID,1009.04,VALID,0,VALID,104,VALID,0,VALID,22.8368,VALID,180,VALID,0,
2014-07-19, 01:58:04,VALID,1009.06,VALID,0,VALID,104,VALID,0,VALID,22.8368,VALID,180,VALID,0,
2014-07-19, 01:59:04,VALID,1009.05,VALID,0,VALID,104,VALID,0,VALID,22.8368,VALID,180,VALID,0,
2014-07-19, 02:00:04,VALID,1009.05,VALID,0,VALID,104,VALID,0,VALID,22.7961,VALID,180,VALID,0,
2014-07-19, 02:01:04,VALID,1009.04,VALID,0,VALID,104,VALID,0,VALID,22.8173,VALID,180,VALID,0,
2014-07-19, 02:02:04,VALID,1009.05,VALID,0,VALID,104,VALID,0,VALID,22.819,VALID,180,VALID,0,
2014-07-19, 02:03:04,VALID,1009.07,VALID,0,VALID,104,VALID,0,VALID,22.8173,VALID,180,VALID,0,
2014-07-19, 02:04:04,VALID,1009.07,VALID,0,VALID,104,VALID,0,VALID,22.8173,VALID,180,VALID,0,
2014-07-19, 02:05:04,VALID,1009.09,VALID,0,VALID,104,VALID,0,VALID,22.8173,VALID,180,VALID,0,
2014-07-19, 02:06:04,VALID,1009.09,VALID,0,VALID,104,VALID,0,VALID,22.8368,VALID,180,VALID,0,
2014-07-19, 02:07:04,VALID,1009.07,VALID,0,VALID,104,VALID,0,VALID,22.8562,VALID,180,VALID,0,
2014-07-19, 02:08:04,VALID,1009.05,VALID,0,VALID,104,VALID,0,VALID,22.8562,VALID,180,VALID,0,
2014-07-19, 02:09:04,VALID,1009.07,VALID,0,VALID,104,VALID,0,VALID,22.8562,VALID,180,VALID,0,
2014-07-19, 02:10:04,VALID,1009.05,VALID,0,VALID,104,VALID,0.112112,VALID,22.8368,VALID,180,VALID,0,
2014-07-19, 02:11:04,VALID,1009.06,VALID,0,VALID,104,VALID,0.112112,VALID,22.8173,VALID,180,VALID,0,
2014-07-19, 02:12:04,VALID,1009.06,VALID,0,VALID,104,VALID,0.112112,VALID,22.7783,VALID,180,VALID,0,
2014-07-19, 02:13:04,VALID,1009.08,VALID,0,VALID,104,VALID,0.112112,VALID,22.7394,VALID,180,VALID,0,
2014-07-19, 02:14:04,VALID,1009.09,VALID,0,VALID,104,VALID,0.112112,VALID,22.7199,VALID,180,VALID,0,
2014-07-19, 02:15:04,VALID,1009.08,VALID,0,VALID,104,VALID,0,VALID,22.6792,VALID,180,VALID,0,
2014-07-19, 02:16:04,VALID,1009.11,VALID,0,VALID,104,VALID,0.112112,VALID,22.7004,VALID,180,VALID,0,
2014-07-19, 02:17:04,VALID,1009.13,VALID,0,VALID,104,VALID,0,VALID,22.6809,VALID,180,VALID,0,
2014-07-19, 02:18:04,VALID,1009.11,VALID,0,VALID,104,VALID,0,VALID,22.6614,VALID,180,VALID,0,
2014-07-19, 02:19:04,VALID,1009.13,VALID,0,VALID,104,VALID,0,VALID,22.642,VALID,180,VALID,0,
2014-07-19, 02:20:04,VALID,1009.14,VALID,0,VALID,104,VALID,0,VALID,22.6225,VALID,180,VALID,0,
2014-07-19, 02:21:04,VALID,1009.13,VALID,0,VALID,104,VALID,0,VALID,22.5818,VALID,180,VALID,0,
2014-07-19, 02:22:04,VALID,1009.13,VALID,0,VALID,104,VALID,0,VALID,22.5835,VALID,180,VALID,0,
2014-07-19, 02:23:05,VALID,1009.12,VALID,0,VALID,104,VALID,0,VALID,22.603,VALID,180,VALID,0,
2014-07-19, 02:24:05,VALID,1009.11,VALID,0,VALID,104,VALID,0,VALID,22.5835,VALID,180,VALID,0,
2014-07-19, 02:25:05,VALID,1009.11,VALID,0,VALID,104,VALID,0,VALID,22.5835,VALID,180,VALID,0,
2014-07-19, 02:26:05,VALID,1009.1,VALID,0,VALID,104,VALID,0,VALID,22.564,VALID,180,VALID,0,
2014-07-19, 02:27:05,VALID,1009.1,VALID,0,VALID,104,VALID,0,VALID,22.564,VALID,180,VALID,0,
2014-07-19, 02:28:05,VALID,1009.08,VALID,0,VALID,104,VALID,0.112112,VALID,22.5429,VALID,180,VALID,0,
2014-07-19, 02:29:05,VALID,1009.07,VALID,0,VALID,104,VALID,0.112112,VALID,22.5835,VALID,180,VALID,0,
2014-07-19, 02:30:05,VALID,1009.05,VALID,0,VALID,104,VALID,0.112112,VALID,22.5623,VALID,180,VALID,0,
2014-07-19, 02:31:05,VALID,1009.02,VALID,0,VALID,104,VALID,0,VALID,22.5835,VALID,180,VALID,0,
2014-07-19, 02:32:05,VALID,1009.03,VALID,0,VALID,104,VALID,0.112112,VALID,22.5623,VALID,180,VALID,0,
2014-07-19, 02:33:05,VALID,1009.03,VALID,0,VALID,104,VALID,0,VALID,22.5446,VALID,180,VALID,0,
2014-07-19, 02:34:05,VALID,1009.04,VALID,0,VALID,104,VALID,0.112112,VALID,22.5446,VALID,180,VALID,0,
2014-07-19, 02:35:05,VALID,1009.04,VALID,0,VALID,104,VALID,0,VALID,22.5446,VALID,180,VALID,0,
2014-07-19, 02:36:05,VALID,1009.04,VALID,0,VALID,104,VALID,0.112112,VALID,22.5251,VALID,180,VALID,0,
2014-07-19, 02:37:05,VALID,1009.05,VALID,0,VALID,104,VALID,0,VALID,22.4844,VALID,180,VALID,0,
2014-07-19, 02:38:05,VALID,1009.04,VALID,0,VALID,104,VALID,0.112112,VALID,22.5056,VALID,180,VALID,0,
2014-07-19, 02:39:05,VALID,1009.03,VALID,0,VALID,104,VALID,0,VALID,22.5056,VALID,180,VALID,0,
2014-07-19, 02:40:05,VALID,1009.03,VALID,0,VALID,104,VALID,0,VALID,22.4861,VALID,180,VALID,0,
2014-07-19, 02:41:05,VALID,1009.03,VALID,0,VALID,104,VALID,0,VALID,22.465,VALID,180,VALID,0,
2014-07-19, 02:42:05,VALID,1009.04,VALID,0,VALID,104,VALID,0.112112,VALID,22.4667,VALID,180,VALID,0,
2014-07-19, 02:43:05,VALID,1009.04,VALID,0,VALID,104,VALID,0,VALID,22.4667,VALID,180,VALID,0,
2014-07-19, 02:44:05,VALID,1009.01,VALID,0,VALID,104,VALID,0,VALID,22.4472,VALID,180,VALID,0,
2014-07-19, 02:45:05,VALID,1009.02,VALID,0,INVALID,109.01,VALID,0,VALID,22.4082,VALID,180,VALID,0,
2014-07-19, 02:46:05,VALID,1009.02,VALID,0,INVALID,109.041,VALID,0,VALID,22.4082,VALID,180,VALID,0,
2014-07-19, 02:47:05,VALID,1009.07,VALID,0,INVALID,109.033,VALID,0.112112,VALID,22.3887,VALID,180,VALID,0,
2014-07-19, 02:48:05,VALID,1009.06,VALID,0,INVALID,109.056,VALID,0.112112,VALID,22.4099,VALID,180,VALID,0,
2014-07-19, 02:49:05,VALID,1009.09,VALID,0,INVALID,109.086,VALID,0.112112,VALID,22.3887,VALID,180,VALID,0,
2014-07-19, 02:50:05,VALID,1009.1,VALID,0,INVALID,109.117,VALID,0,VALID,22.3887,VALID,180,VALID,0,
2014-07-19, 02:51:05,VALID,1009.1,VALID,0,INVALID,109.109,VALID,0,VALID,22.3887,VALID,180,VALID,0,
2014-07-19, 02:52:05,VALID,1009.09,VALID,0,INVALID,109.155,VALID,0,VALID,22.3481,VALID,180,VALID,0,
2014-07-19, 02:53:05,VALID,1009.13,VALID,0,INVALID,109.178,VALID,0,VALID,22.3693,VALID,180,VALID,0,
2014-07-19, 02:54:05,VALID,1009.1,VALID,0,INVALID,109.186,VALID,0,VALID,22.3091,VALID,180,VALID,0,
2014-07-19, 02:55:05,VALID,1009.11,VALID,0,INVALID,109.201,VALID,0,VALID,22.3303,VALID,180,VALID,0,
2014-07-19, 02:56:05,VALID,1009.12,VALID,0,INVALID,109.224,VALID,0,VALID,22.332,VALID,180,VALID,0,
2014-07-19, 02:57:05,VALID,1009.1,VALID,0,INVALID,109.254,VALID,0,VALID,22.3108,VALID,180,VALID,0,
2014-07-19, 02:58:05,VALID,1009.12,VALID,0,INVALID,109.262,VALID,0.112112,VALID,22.3108,VALID,180,VALID,0,
2014-07-19, 02:59:05,VALID,1009.1,VALID,0,INVALID,109.269,VALID,0.112112,VALID,22.3108,VALID,180,VALID,0,
2014-07-19, 03:00:05,VALID,1009.12,VALID,0,INVALID,109.277,VALID,0,VALID,22.3108,VALID,180,VALID,0,
2014-07-19, 03:01:05,VALID,1009.09,VALID,0,INVALID,109.315,VALID,0.112112,VALID,22.3108,VALID,180,VALID,0,
2014-07-19, 03:02:05,VALID,1009.12,VALID,0,INVALID,109.353,VALID,0.112112,VALID,22.3303,VALID,180,VALID,0,
2014-07-19, 03:03:05,VALID,1009.1,VALID,0,INVALID,109.376,VALID,0,VALID,22.3108,VALID,180,VALID,0,
2014-07-19, 03:04:05,VALID,1009.09,VALID,0,INVALID,109.399,VALID,0,VALID,22.3108,VALID,180,VALID,0,
2014-07-19, 03:05:05,VALID,1009.08,VALID,0,INVALID,109.391,VALID,0,VALID,22.2914,VALID,180,VALID,0,
2014-07-19, 03:06:05,VALID,1009.1,VALID,0,INVALID,109.407,VALID,0.112112,VALID,22.2914,VALID,180,VALID,0,
2014-07-19, 03:07:05,VALID,1009.09,VALID,0,INVALID,109.399,VALID,0.112112,VALID,22.2914,VALID,180,VALID,0,
2014-07-19, 03:08:05,VALID,1009.09,VALID,0,INVALID,109.437,VALID,0.112112,VALID,22.2914,VALID,180,VALID,0,
2014-07-19, 03:09:05,VALID,1009.08,VALID,0,INVALID,109.468,VALID,0.112112,VALID,22.2507,VALID,180,VALID,0,
2014-07-19, 03:10:05,VALID,1009.09,VALID,0,INVALID,109.483,VALID,0.112112,VALID,22.2719,VALID,180,VALID,0,
2014-07-19, 03:11:05,VALID,1009.09,VALID,0,INVALID,109.491,VALID,0,VALID,22.2524,VALID,180,VALID,0,
2014-07-19, 03:12:05,VALID,1009.1,VALID,0,INVALID,109.552,VALID,0.112112,VALID,22.2524,VALID,180,VALID,0,
2014-07-19, 03:13:05,VALID,1009.07,VALID,0,INVALID,109.574,VALID,0.112112,VALID,22.2524,VALID,180,VALID,0,
2014-07-19, 03:14:05,VALID,1009.09,VALID,0,INVALID,109.62,VALID,0,VALID,22.2329,VALID,180,VALID,0,
2014-07-19, 03:15:05,VALID,1009.1,VALID,0,INVALID,109.613,VALID,0.112112,VALID,22.2118,VALID,180,VALID,0,
2014-07-19, 03:16:05,VALID,1009.09,VALID,0,INVALID,109.635,VALID,0.112112,VALID,22.2118,VALID,180,VALID,0,
2014-07-19, 03:17:05,VALID,1009.09,VALID,0,INVALID,109.643,VALID,0.112112,VALID,22.2329,VALID,180,VALID,0,
2014-07-19, 03:18:05,VALID,1009.08,VALID,0,INVALID,109.651,VALID,0.112112,VALID,22.2134,VALID,180,VALID,0,
2014-07-19, 03:19:05,VALID,1009.02,VALID,0,INVALID,109.681,VALID,0.112112,VALID,22.2134,VALID,180,VALID,0,
2014-07-19, 03:20:05,VALID,1008.98,VALID,0,INVALID,109.689,VALID,0.112112,VALID,22.2134,VALID,180,VALID,0,
2014-07-19, 03:21:05,VALID,1008.97,VALID,0,INVALID,109.689,VALID,0.112112,VALID,22.1923,VALID,180,VALID,0,
2014-07-19, 03:22:05,VALID,1008.93,VALID,0,INVALID,109.658,VALID,0,VALID,22.2329,VALID,180,VALID,0,
2014-07-19, 03:23:05,VALID,1008.93,VALID,0,INVALID,109.689,VALID,0.112112,VALID,22.1923,VALID,180,VALID,0,
2014-07-19, 03:24:05,VALID,1008.88,VALID,0,INVALID,109.696,VALID,0,VALID,22.2134,VALID,180,VALID,0,
2014-07-19, 03:25:05,VALID,1008.87,VALID,0,INVALID,109.727,VALID,0.112112,VALID,22.2134,VALID,180,VALID,0,
2014-07-19, 03:26:05,VALID,1008.88,VALID,0,INVALID,109.719,VALID,0.112112,VALID,22.2134,VALID,180,VALID,0,
2014-07-19, 03:27:05,VALID,1008.84,VALID,0,INVALID,109.727,VALID,0,VALID,22.2329,VALID,180,VALID,0,
2014-07-19, 03:28:05,VALID,1008.86,VALID,0,INVALID,109.773,VALID,0.112112,VALID,22.1923,VALID,180,VALID,0,
2014-07-19, 03:29:05,VALID,1008.85,VALID,0,INVALID,109.742,VALID,0.112112,VALID,22.194,VALID,180,VALID,0,
2014-07-19, 03:30:05,VALID,1008.84,VALID,0,INVALID,109.757,VALID,0,VALID,22.2134,VALID,180,VALID,0,
2014-07-19, 03:31:05,VALID,1008.83,VALID,0,INVALID,109.788,VALID,0,VALID,22.194,VALID,180,VALID,0,
2014-07-19, 03:32:05,VALID,1008.8,VALID,0,INVALID,109.803,VALID,0.112112,VALID,22.194,VALID,180,VALID,0,
2014-07-19, 03:33:05,VALID,1008.82,VALID,0,INVALID,109.796,VALID,0.112112,VALID,22.194,VALID,180,VALID,0,
2014-07-19, 03:34:05,VALID,1008.81,VALID,0,INVALID,109.818,VALID,0.112112,VALID,22.194,VALID,180,VALID,0,
2014-07-19, 03:35:05,VALID,1008.83,VALID,0,INVALID,109.826,VALID,0.112112,VALID,22.194,VALID,180,VALID,0,
2014-07-19, 03:36:05,VALID,1008.82,VALID,0,INVALID,109.841,VALID,0.112112,VALID,22.1745,VALID,180,VALID,0,
2014-07-19, 03:37:05,VALID,1008.84,VALID,0,INVALID,109.841,VALID,0.112112,VALID,22.1745,VALID,180,VALID,0,
2014-07-19, 03:38:05,VALID,1008.85,VALID,0,INVALID,109.826,VALID,0.112112,VALID,22.155,VALID,180,VALID,0,
2014-07-19, 03:39:05,VALID,1008.83,VALID,0,INVALID,109.857,VALID,0.112112,VALID,22.1339,VALID,180,VALID,0,
2014-07-19, 03:40:05,VALID,1008.88,VALID,0,INVALID,109.826,VALID,0,VALID,22.1745,VALID,180,VALID,0,
2014-07-19, 03:41:05,VALID,1008.88,VALID,0,INVALID,109.841,VALID,0,VALID,22.1745,VALID,180,VALID,0,
2014-07-19, 03:42:05,VALID,1008.89,VALID,0,INVALID,109.841,VALID,0.112112,VALID,22.194,VALID,180,VALID,0,
2014-07-19, 03:43:05,VALID,1008.9,VALID,0,INVALID,109.849,VALID,0,VALID,22.194,VALID,180,VALID,0,
2014-07-19, 03:44:05,VALID,1008.93,VALID,0,INVALID,109.864,VALID,0,VALID,22.2134,VALID,180,VALID,0,
2014-07-19, 03:45:05,VALID,1008.92,VALID,0,INVALID,109.872,VALID,0.112112,VALID,22.194,VALID,180,VALID,0,
2014-07-19, 03:46:05,VALID,1008.91,VALID,0,INVALID,109.91,VALID,0,VALID,22.1745,VALID,180,VALID,0,
2014-07-19, 03:47:05,VALID,1008.93,VALID,0,INVALID,109.91,VALID,0.112112,VALID,22.155,VALID,180,VALID,0,
2014-07-19, 03:48:05,VALID,1008.96,VALID,0,INVALID,109.91,VALID,0,VALID,22.1355,VALID,180,VALID,0,
2014-07-19, 03:49:05,VALID,1008.95,VALID,0,INVALID,109.864,VALID,0.112112,VALID,22.155,VALID,180,VALID,0,
2014-07-19, 03:50:05,VALID,1008.98,VALID,0,INVALID,109.895,VALID,0.112112,VALID,22.194,VALID,180,VALID,0,
2014-07-19, 03:51:05,VALID,1008.96,VALID,0,INVALID,109.872,VALID,0,VALID,22.1923,VALID,180,VALID,0,
2014-07-19, 03:52:05,VALID,1008.95,VALID,0,INVALID,109.887,VALID,0,VALID,22.2329,VALID,180,VALID,0,
2014-07-19, 03:53:05,VALID,1008.96,VALID,0,INVALID,109.895,VALID,0.112112,VALID,22.2524,VALID,180,VALID,0,
2014-07-19, 03:54:05,VALID,1008.98,VALID,0,INVALID,109.895,VALID,0,VALID,22.2329,VALID,180,VALID,0,
2014-07-19, 03:55:05,VALID,1008.98,VALID,0,INVALID,109.933,VALID,0.112112,VALID,22.2329,VALID,180,VALID,0,
2014-07-19, 03:56:05,VALID,1008.99,VALID,0,INVALID,109.94,VALID,0,VALID,22.194,VALID,180,VALID,0,
2014-07-19, 03:57:05,VALID,1008.97,VALID,0,INVALID,110.001,VALID,0,VALID,22.1745,VALID,180,VALID,0,
2014-07-19, 03:58:05,VALID,1008.98,VALID,0,INVALID,109.986,VALID,0.112112,VALID,22.155,VALID,180,VALID,0,